STARLINK-1526, 46029

Orbit data source: Space-Track

STARLINK-1526, 46029 is a payload satellite owned by SpaceX/Seattle (US) in LEO that was launched on Fri, 07 Aug 2020 UTC via an FALCON 9 launch vehicle from the Air Force Eastern Test Range (AFETR). Payload-class satellites include a variety of spacecraft equipped with specific instruments for various scientific and technological missions. These include communications satellites like Starlink; space stations such as the ISS; scientific satellites like the Hubble; Earth observation satellites from companies like Planet Labs, Umbra, and HawkEye 360; GPS; miniature CubeSats for education and research; and military/defense satellites.

Loading next visibility...
Identifier
46029, 2020-055C
Orbit
LEO
Country
Flag of USUS
Related business
Manufacturer
SpaceX/Seattle
Mission
Operational Commercial Communications
Bus & Motor
STARLINK, Unknown motor
Mass
260 kg wet, ~248 kg dry
Launch date (UTC)
2020-08-07 (5 years ago)
Launch vehicle
FALCON 9
Launch site
Air Force Eastern Test Range (AFETR)
Object type
Payload
Rocket body
Debris
Shape & HBR
Box + 1 Pan, 10.1 m
Radar Cross Section
13.562 m², Large (>1 m²)

Expand to show TLE details & history
Last TLE update: 17 hours ago

TLE from 17 hours ago
0 STARLINK-1526
1 46029U 20055C   26034.93250297  .00003592  00000-0  25964-3 0  9993
2 46029  53.0520 278.1541 0000960 120.0346 240.0739 15.06436732303803
Epoch: 2026-02-03T22:22Z
TLE epoch observation values (Epoch: 2026-02-03T22:22:48.256Z)
Latitude
0.00003°
Longitude
168.34671°
Altitude
548.31 km
Speed
7.589 km/s
True Right ascension
18h 32m 36s
True Declination
0° 00' 00"
Sunlit
Object was in daylight at epoch
Visualization orbit readout
Latitude
Unknown
Longitude
Unknown
Altitude
Unknown
Speed
Unknown
Apparent Right ascension
Unknown
Apparent Declination
Unknown
Sunlit
N/A
Visualization observer readout
Local Sidereal Time
17:43:21
Azimuth
Unknown
Elevation
Unknown
Doppler factor
Unknown
Orbital elements
Apogee altitude
548.035 km
Perigee altitude
546.705 km
Semi-major axis
6,925.507 km
Eccentricity
0.0001
Inclination
53.052°
RAAN
278.1541°
Arg. of periapsis
120.0346°
True anomaly
240.06437°
Mean anomaly
240.0739°
Eccentric anomaly
240.06913°
Mean motion
3.76587 °/min
Orbital period
95.6 mins
BSTAR
0.00025964
Loading maneuver chart data...
Computing Atmospheric mass density...

Documentation

Showing up to 5 results
|